KINEIS-4D

Last updated on Thu Oct 23 2025 00:02:50 GMT+0000 (Coordinated Universal Time)

1 63302U 25056C 25295.46807156 .00003548 00000+0 56891-3 0 9993 2 63302 97.9979 59.1149 0001965 46.0388 314.0981 14.72309265 32151
UTC large
Height (km)
Speed (km/s)
/
Latitude / Longitude
Inclination (degrees)
Orbital Period (minutes)
Azimuth
Elevation
Range (km)
Doppler Factor

Next 0 passes for location: London (51.5072 / 0.1276)

Sorry there are no passes over London.